カタログに戻る

CZ-6A DEB

運用中PO
NORAD 64650·DEBRIS·🇨🇳 China

打ち上げ Aug 6, 2024 から Taiyuan Satellite Launch Center

Loading…

次のパス (今後24時間)

TLE

最新Source: Space-Track

元期: Sep 14, 2026, 10:01 UTC

1 64650U 24140AEQ 26257.41756210  .00019785  00000-0  15712-2 0  9998
2 64650  88.9408 251.1389 0048568 212.0501 147.7779 14.99445143104383

AllMySatでCZ-6A DEBをリアルタイム追跡

Download on the App Store